Regional Weather Roundup
Issued by NWS

Home | Current Version | Previous Version | Text Only | Print | Product List | Glossary Off
Versions: 1 2 3 4 5 6 7 8 9 10 11 12 13 14 15 16 17 18 19 20 21 22 23 24 25 26 27 28 29 30 31 32 33 34 35 36 37 38 39 40 41 42 43 44 45 46 47 48 49 50

000
ASUS45 KSLC 280910
RWRUT

UTAH REGIONAL WEATHER ROUNDUP
NATIONAL WEATHER SERVICE SALT LAKE CITY UT
300 AM MDT SAT MAR 28 2015

UTZ001>011-023>025-281000-

NORTHERN UTAH

CITY           SKY/WX    TMP DP  RH WIND       PRES   REMARKS
BRIGHAM CITY   CLEAR     43  35  73 CALM      30.12S
HILL AFB       CLEAR     52  29  41 E16       30.12F
LOGAN          CLEAR     40  34  79 CALM      30.13S
OGDEN          CLEAR     49  30  48 S12       30.10F
PROVO AIRPORT  CLEAR     48  30  49 SE8       30.16F
SALT LAKE CITY CLEAR     52  34  50 SE10      30.10F
VERNAL         CLEAR     42  27  55 W5        30.17R
WENDOVER       CLEAR     45  27  49 CALM      30.10S
HEBER CITY     CLEAR     32  27  80 CALM      30.22S
WEST JORDAN    CLEAR     52  34  50 S7        30.13F

$$

UTZ012>022-026-027-281000-

SOUTHERN/CENTRAL UTAH

CITY           SKY/WX    TMP DP  RH WIND       PRES   REMARKS
BLANDING       CLEAR     44  22  43 N6        30.29S
BRYCE CANYON   PTCLDY    32  24  72 W10       30.33S WCI  24
CEDAR CITY     CLEAR     49  24  37 SE7       30.21S
DELTA          CLEAR     49  28  43 SE7       30.14F
HANKSVILLE     CLEAR     41  21  45 S5        30.18R
MILFORD        CLEAR     51  24  34 SW16      30.17S
MOAB/CYNLANDS  CLEAR     47  22  37 CALM      30.14S
PRICE          CLEAR     45  22  40 N9        30.20S
ST GEORGE      SUNNY     57  27  30 SE3       30.13S
KANAB          CLEAR     37  27  65 NE6       30.25S WCI  33

$$

REGIONAL REPORTS     COLORADO/ARIZONA

CITY           SKY/WX    TMP DP  RH WIND       PRES   REMARKS
CRAIG, CO      CLEAR     33  28  81 CALM      30.22S
GRAND JUNCTION CLEAR     46  26  45 SE13      30.17S
RIFLE          CLEAR     40  26  57 CALM      30.22S
MONTROSE       CLEAR     45  25  45 SE9       30.24S
CORTEZ         CLEAR     31  22  69 NE9       30.25S WCI  23
PAGE, AZ       CLEAR     58  21  24 CALM      30.16S
GRAND CANYON   PTCLDY    27  19  72 CALM      30.31S
KINGMAN        CLEAR     48  25  40 CALM      30.14F
FLAGSTAFF      CLEAR     37  20  50 CALM      30.32F

$$

REGIONAL REPORTS    NEVADA/IDAHO/WYOMING

CITY           SKY/WX    TMP DP  RH WIND       PRES   REMARKS
LAS VEGAS, NV  CLEAR     67  24  19 SW9       30.01S
ELY            CLEAR     49  19  30 S8        30.22R
ELKO           CLEAR     38  28  67 CALM      30.14R
POCATELLO, ID  CLEAR     55  30  38 CALM      30.05F
BURLEY         CLEAR     57  29  34 SW18G28   30.02S
EVANSTON, WY   PTCLDY    42  25  50 S7        30.23F
ROCK SPRINGS   CLEAR     42  27  55 SW8       30.20F
KEMMERER       CLEAR     34  30  86 N9        30.23F WCI  26

$$


USA.gov is the U.S. government's official web portal to all federal, state and local government web resources and services.